User: anonymous   Login
Location: Unspecified
(48.2082°N, 0.0000°E)
Time: 18:30:44
(UTC+00:00)
Language:

Vanguard 1 - Orbit

View from above orbital plane
View from above orbital plane
View from above satellite
View from above satellite

Ground track
Ground track

The orbit data is extracted from the following two-line orbital elements,

1     5U 58002B   19166.41452094 -.00000038 +00000-0 -40111-4 0  9996
2     5 034.2440 281.8942 1841927 136.3046 239.9039 10.84762354165280
Epoch (UTC): 15 June 2019 09:56:54
Eccentricity: 0.1841927
inclination: 34.2440°
perigee height: 654 km
apogee height: 3829 km
right ascension of ascending node: 281.8942°
argument of perigee: 136.3046°
revolutions per day: 10.84762354
mean anomaly at epoch: 239.9039°
orbit number at epoch: 16528

The dashed part of the orbit path shows where the satellite is in the earth's shadow,  

DLR